Погода Лодейное Поле

Погода Лодейное Поле : погода сейчас, прогноз погоды и архив. Всё, что Вы хотите узнать о погоде Лодейное Поле!

Хотите узнать прогноз погоды Лодейное Поле? Тогда Вам сюда: Погода Лодейное Поле

Поиск расширенной информации на нашем сайте:

Другие новости

Новости СМИ2

Главная страница сайта

Новости сайта

03.07.2017

Напоминаем, что на нашем специализированном сайте Метеоцентр.Азия вы можете получить высокодетализированные автоматические прогнозы погоды по пунктам России, СНГ и мира в авиационном формате (включающие направление и скорость ветра, видимость, явления погоды, количество и форму облачности, нижнюю и верхнюю границу облачности).


Погода Лодейное Поле - сегодня

Время (UTC), дата Ветер
(°,м/с) 
Видим.   Явления Облачность Т
(°С)
Тd
(°С)
f(%) Тe
(°С)
Pmin
(гПа)
dP
(гПа)
Po
(мм)
O2
(г/м3)
Тmin Tmax R s Состояние
почвы
00 17.10.17 260 (З) 10 км  {ливн. осадки}  6/3 300 м средняя 
[Sc|Ac trans]
+7.1 +5.5 90 +6  1003.2  2.1  750  294           
03 17.10.17 250 (З) 10 км    ясно 
+6 +3.9 86 +6  1004.2  0.9  751  295  +5.4       
06 17.10.17 260 (З) 10 км    9/9 720 м 
[Sc]
+7.2 +4 80 +6  1004.9  0.8  752  294  +6       
09 17.10.17 250 (З) 4{12}  10 км    9/9 720 м 
[Sc]
+7.9 +4.2 77 +7  1006.3  1.3  753  294           
12 17.10.17 250 (З) 4{14}  10 км    9/9 570 м 
[Sc]
+8 +4.4 78 +7  1007.2  0.9  753  294           
15 17.10.17 220 (ЮЗ) 2{10}  10 км    8/4 600 м верхняя 
[Sc|Ci sp]
+6.5 +3.6 82 +6  1006.5  -0.7  753  296           
18 17.10.17 220 (ЮЗ) 10 км    10/3 600 м средняя 
[Sc|Ac As]
+7.3 +4.3 81 +7  1004.5  -2  751  294    +8.3       
21 17.10.17 180 (Ю) 10 км    10/8 480 м средняя 
[Sc|Ac As]
+6.1 +4.5 89 +7  1001.5  -3  749  294           
00 18.10.17 150 (ЮВ) 10 км    10/10 450 м 
[Sc]
+6.2 +5.2 93 +7  998.1  -3.4  746  293           
03 18.10.17 050 (СВ) 4000 м  слаб. ливневой дождь  10/10 270 м кучево-дожд. 
[Cb cap]
+5.9 +5.6 98 +6  995.2  -2.9  744  293  +5.9       
06 18.10.17 020 (С) 4000 м  слаб. ливневой дождь  10/10 180 м кучево-дожд. 
[Cb cap]
+5.8 +5.3 97 +6  994.4  -0.8  744  293  +5.7       
09 18.10.17 030 (СВ) 4000 м  слаб. ливневой дождь  10/10 360 м кучево-дожд. 
[Cb cap]
+5.5 +4.4 93 +5  994.3  0.1  744  293           
12 18.10.17 340 (С) 4000 м  слаб. ливневой дождь  10/10 450 м кучево-дожд. 
[Cb calv]
+5.4 +4.2 92 +5  996.4  2.1  745  294           
15 18.10.17 250 (З) 4000 м  слаб. ливневой дождь  10/10 420 м кучево-дожд. 
[Cb cap]
+4.9 +4.1 95 +6  998.8  2.3  747  295         
18 18.10.17 260 (З) 4000 м  слаб. ливневой дождь  10/10 330 м кучево-дожд. 
[Cb cap]
+4.3 +3.5 95 +5  1000.9  2.1  749  296    +5.8     
21 18.10.17 230 (ЮЗ) 4000 м  дымка{ливн. осадки}  4/4 300 м 
[Sc]
+3 +2.6 97 +4  1002.7  1.8  750  298           
00 19.10.17 280 (З) 4000 м  дымка{ливн. осадки}  10/10 420 м 
[Sc]
+4.2 +3.6 96 +5  1004.1  1.4  751  297           
03 19.10.17 310 (СЗ) 4000 м  дымка  10/10 540 м 
[Sc]
+4 +2.6 91 +5  1006.1  752  298  +2.9       
06 19.10.17 270 (З) 4000 м  дымка  9/6 300 м средняя 
[Sc|Ac trans]
+3.5 +2 90 +3  1008.3  2.2  754  300  +2.9    0.3     
09 19.10.17 300 (СЗ) 10 км    10/10 400 м 
[Sc]
+4.1 +2.2 87 +4  1010.9  2.6  756  300           
12 19.10.17 310 (СЗ) 10 км    10/10 540 м 
[Sc]
+4.2 +2 86 +5  1013.5  2.5  758  300           
15 19.10.17 290 (З) 10 км    8/4 600 м средняя, верхняя 
[Sc|Ac trans|Ci sp]
+3 +1.6 91 +4  1015.2  1.7  759  302           
18 19.10.17 280 (З) 10 км    8/0 средняя 
[Ac trans]
+2.1 +1.2 94 +3  1016.7  1.5  760  304    +4.4       
21 19.10.17 тихо ()   10 км    9/0 средняя 
[Ac trans]
+1.6 +1.2 97 +2  1018.1  1.4  761  305           
00 20.10.17 тихо ()   4000 м  дымка  10/0 средняя 
[Ac As]
+0.8 +0.7 99 +1  1018.9  0.8  762  306           
Время (UTC), дата Ветер
(°,м/с) 
Видим.   Явления Облачность Т
(°С)
Тd
(°С)
f(%) Тe
(°С)
Pmin
(гПа)
dP
(гПа)
Po
(мм)
O2
(г/м3)
Тmin Tmax R s Состояние
почвы

Для получения пояснительной информации подведите курсор к названию столбца.

ПОГОДА Лодейное Поле - архив

Всё, что Вы хотите узнать о погоде Лодейное Поле - удобно и подробно!

Выберите нужную дату (начиная с 1 января 2015* года) и нажмите кнопку "Найти".
Будут отображены архивные сводки погоды по пункту Лодейное Поле, начиная с указанной даты.


Отображать данные в формате CSV (для использования в таблицах Excel)


Внимание! Наш архив погоды предназначен исключительно для личного некоммерческого использования в познавательных целях. Если Вам необходимы официальные справки о состоянии погоды (для производственных, юридических, коммерческих и т.п. целей), обращайтесь в органы Росгидромета.

*Примечание: данная дата относится к архиву по метеостанциям СССР (Россия, СНГ, Балтия).
Архив по метеостанциям Зарубежной Европы и Азии (кроме Китая) хранится 10 дней, по другим регионам земного шара (Китай, Африка, Америка, Австралия, Океания) - 1 день.

Лодейное Поле - район местоположения метеостанции


Название, широта, долгота, высота метеостанции:
Лодейное Поле 60.7°ш. 33.6°д. 23 м над ур. моря [Российская Федерация]

Дополнительная информация

В oтличие oт бoльшинства пoгoдных сайтoв мы публикуем пoдрoбную метеoинфoрмацию в детальнoм прoфессиoнальнoм фoрмате.

Характеристики температуры и влажнoсти вoздуха измеряются на высoте 2 м в тени вдали oт зданий и деревьев.
Скoрoсть ветра измеряется на высoте 10 м (на урoвне рoста челoвека скoрoсть ветра ниже в 1.5-2 раза). Если метеoстанция нахoдится в гoрoде или в лесу, тo скoрoсть ветра занижена на 2-4 м/с пo сравнению с oткрытым местoм. Скoрoсть ветра над акватoриями крупных рек и oзёр, а также на вершинах хoлмoв на 2-5 м/с выше, чем в oбычных услoвиях.
Атмoсфернoе давление в разных тoчках местнoсти мoжет значительнo oтличаться oт давления на метеoстанции, в зависимoсти oт услoвий рельефа (при пoдъёме на 10 м давление пoнижается примернo на 1 мм рт.ст.).